Regional Weather Roundup
Issued by NWS

Home | Current Version | Previous Version | Graphics & Text | Print | Product List | Glossary On
Versions: 1 2 3 4 5 6 7 8 9 10 11 12 13 14 15 16 17 18 19 20 21 22 23 24 25 26 27
000
ASUS45 KBOU 261707
RWRCO

WEATHER ROUNDUP FOR COLORADO
NATIONAL WEATHER SERVICE DENVER/BOULDER CO
1000 AM MST SUN FEB 26 2017

NOTE: "FAIR" INDICATES FEW OR NO CLOUDS BELOW 12000 FEET WITH NO
SIGNIFICANT WEATHER AND/OR OBSTRUCTIONS TO VISIBILITY.

COZ001>005-013-030-031-261800-
...NORTHWEST COLORADO...

CITY           SKY/WX    TMP DP  RH WIND       PRES   REMARKS
CRAIG          FAIR      18   7  62 E7        29.93S WCI   9
HAYDEN         FAIR      12   3  67 E10       29.90F WCI  -1
MEEKER         FAIR      16   5  62 CALM      29.93S
MOUNT WERNER   NOT AVBL
STEAMBOAT SPGS FAIR       9  -1  65 CALM      29.90S
WALDEN         NOT AVBL
$$

COZ006>008-011-261800-
...WEST CENTRAL VALLEYS...

CITY           SKY/WX    TMP DP  RH WIND       PRES   REMARKS
GRAND JUNCTION FAIR      32   9  38 SE7       29.97R WCI  26
MONTROSE       FAIR      29  15  56 CALM      29.97R
EAGLE          NOT AVBL
RIFLE          FAIR      25   9  50 N3        29.97S
DELTA          FAIR      33  12  42 CALM      29.97S
NUCLA          FAIR      30  14  51 CALM      29.98S
$$

COZ017>023-064>068-261800-
...SOUTHWEST COLORADO...

CITY           SKY/WX    TMP DP  RH WIND       PRES   REMARKS
DURANGO        FAIR      32   9  38 VRB6      29.90F WCI  26
CORTEZ         FAIR      33  16  49 NW3       29.95R
PAGOSA SPRINGS FAIR      28   8  43 S3        29.89S
TELLURIDE      FAIR      17  10  71 SE3       29.88S
WOLF CREEK PAS CLOUDY     9   5  85 S10G18    29.82S WCI  -6
$$

COZ009-010-012-014-032>034-037-058>063-261800-
...CENTRAL COLORADO...

CITY           SKY/WX    TMP DP  RH WIND       PRES   REMARKS
ASPEN          FAIR      16   1  51 S3        29.85S
BUENA VISTA    FAIR      27 -10  19 W18G31    29.78S WCI  13
COPPER MTN     FAIR       5 -13  43 MISG      29.70R
BERTHOUD PASS  PTSUNNY   -8 -17  65 NW21G26   29.62R WCI -32
COTTONWOOD PAS FAIR      19 -13  23 SW24G41   29.72S WCI   2
GUNNISON       FAIR       9   3  77 SE5       29.91R WCI   1
KREMMLING      FAIR      21  10  63 SE3       29.89F
LEADVILLE      FAIR      11 -10  38 NW10G21   29.76S WCI  -3
MONARCH PASS   PTSUNNY    1  -4  78 W45G51    29.76R WCI -28
SALIDA         FAIR      30  -4  23 SW23G29   29.88R WCI  17
SUNLIGHT       NOT AVBL
WILKERSON PASS FAIR      12 -15  29 W12G24    29.69R WCI  -2
$$

COZ069>075-261800-
...SAN LUIS VALLEY/SANGRE DE CRISTO MOUNTAINS...

CITY           SKY/WX    TMP DP  RH WIND       PRES   REMARKS
ALAMOSA        FAIR      26   8  46 E7        29.86S WCI  18
LA VETA PASS   FAIR      19   5  53 SW14G38   29.75S WCI   6
SAGUACHE       FAIR      28   3  34 W23       29.85S WCI  14
$$

COZ035-036-038>040-261800-
...NORTHERN COLORADO FRONT RANGE...

CITY           SKY/WX    TMP DP  RH WIND       PRES   REMARKS
DENVER INTL AP FAIR      32   4  30 SE9       29.80S WCI  24
DMNS CITY PARK   N/A     33  -4  20 MISG      29.80S
AURORA         MOSUNNY   32   1  26 SE10      29.79F WCI  24
FRONT RANGE AP NOT AVBL
ERIE MUNI ARPT FAIR      33   4  29 SE8       29.81S WCI  26
BOULDER MUN AP FAIR      28  10  47 NW5       29.80S WCI  23
CENTENNIAL     FAIR      30   2  30 SE9       29.78S WCI  22
BROOMFIELD     SUNNY     32   1  27 SE10      29.79S WCI  24
FORT COLLINS   FAIR      27  12  53 SE7       29.84R WCI  19
LONGMONT       FAIR      32  10  39 CALM      29.84S
$$

COZ041-046-047-076>085-087-088-261800-
...PIKES PEAK/PALMER DIVIDE AND SOUTHERN FOOTHILLS...

CITY           SKY/WX    TMP DP  RH WIND       PRES   REMARKS
COLO. SPRINGS  FAIR      32  -4  21 E7        29.80S WCI  26
A. F. ACADEMY  FAIR      32  -3  22 S9        29.77S WCI  24
SCHRIEVER AFB  FAIR      30  -2  25 SE8       29.80S WCI  22
ELLICOTT       NOT AVBL
FALCON         FAIR      32  -7  18 SW6       29.79S WCI  26
FORT CARSON    FAIR      33   0  24 NE5       29.79S WCI  29
LIMON          FAIR      29   6  38 SE9       29.83S WCI  20
MONUMENT HILL  FAIR      30  -4  22 SW5       29.77S WCI  25
TRINIDAD       FAIR      38   5  25 E6        29.84F
$$

COZ042>045-048>051-090-091-261800-
...NORTHEAST COLORADO...

CITY           SKY/WX    TMP DP  RH WIND       PRES   REMARKS
GREELEY ARPT   FAIR      30  15  53 SE12      29.86S WCI  20
AKRON          FAIR      29   8  41 VRB3      29.87R
BURLINGTON     FAIR      37  10  32 E10       29.88S
WRAY           NOT AVBL
STERLING       FAIR      28  12  50 W3        29.88R
HOLYOKE        FAIR      34  12  40 W5        29.91R WCI  30
FORT MORGAN    FAIR      28  13  51 E3        29.88R
$$

COZ086-089-092>099-261800-
...SOUTHEAST COLORADO...

CITY           SKY/WX    TMP DP  RH WIND       PRES   REMARKS
PUEBLO         FAIR      36   8  31 S5        29.83F
LA JUNTA       FAIR      34   9  35 E7        29.88S WCI  28
LAMAR          FAIR      33   9  36 CALM      29.90S
SPRINGFIELD      N/A     42   2  18 S6        29.87R
$$




USA.gov is the U.S. government's official web portal to all federal, state and local government web resources and services.